Miscellaneous Local Product
Issued by NWS Hastings, NE

Home | Current Version | Previous Version | Text Only | Print | Product List | Glossary Off
Versions: 1 2 3 4 5 6 7 8 9 10 11 12 13 14 15 16 17 18 19 20 21 22 23 24 25 26 27 28 29 30 31 32 33 34 35 36 37 38 39 40 41 42 43 44 45 46 47 48 49 50

000
AXUS43 KGID 200002
MISGRI

GID CWA HOURLY WEATHER ROUNDUP
NATIONAL WEATHER SERVICE HASTINGS NE
600 PM CST FRI DEC 19 2014

NOTE: "FAIR" INDICATES FEW OR NO CLOUDS BELOW 12,000 FEET WITH NO
SIGNIFICANT WEATHER AND/OR OBSTRUCTIONS TO VISIBILITY.

...SOUTH CENTRAL NEBRASKA...

CITY           SKY/WX    TMP DP  RH WIND       PRES   REMARKS
GRAND ISLAND   CLOUDY    32  30  92 S8        30.07S WCI  25
HASTINGS       CLOUDY    34  31  88 S8        30.06S FOG     WCI  27
KEARNEY        CLEAR     27  25  93 S5        30.05S WCI  21
ORD            CLOUDY    28  26  92 S9        30.04S FOG     WCI  19
YORK           CLOUDY    32  32 100 SW12      30.10S WCI  23
AURORA         CLOUDY    34  32  92 S7        30.08S WCI  28
LEXINGTON      CLEAR     31  28  88 S3        30.02F
HOLDREGE       CLEAR     30  28  93 S5        30.04S FOG     WCI  25
HEBRON         CLOUDY    33  30  90 S6        30.13R WCI  27

...NEBRASKA PANHANDLE...

CITY           SKY/WX    TMP DP  RH WIND       PRES   REMARKS
CHADRON        CLEAR     28  21  75 SW3       29.97S
ALLIANCE       CLEAR     23  19  85 W8        29.98R WCI  14
SCOTTSBLUFF    CLEAR     31  22  69 W8        29.99R WCI  23
SIDNEY         CLEAR     29  23  78 SW6       30.00S WCI  23

...WESTERN AND NORTH CENTRAL NEBRASKA...

CITY           SKY/WX    TMP DP  RH WIND       PRES   REMARKS
VALENTINE      PTCLDY    27  21  78 W5        29.97S WCI  22
AINSWORTH      CLEAR     23  22  96 S6        29.98R WCI  16
ONEILL         CLOUDY    28  28 100 S6        30.02S FOG     WCI  22
BROKEN BOW     CLEAR     30  26  85 CALM      30.00S
IMPERIAL       CLEAR     36  27  69 W8        30.02S WCI  30
NORTH PLATTE   CLEAR     28  24  85 W5        30.00S WCI  23
MCCOOK         CLEAR     43  26  51 SW5       30.03S

...EASTERN NEBRASKA...

CITY           SKY/WX    TMP DP  RH WIND       PRES   REMARKS
NORFOLK        CLOUDY    33  29  85 S8        30.07F WCI  26
SO SIOUX CITY  CLOUDY    34  28  79 S10       30.13F WCI  26
TEKAMAH        CLOUDY    33  28  81 S10       30.15S WCI  25
COLUMBUS       CLOUDY    34  27  75 S8        30.12R WCI  27
ALBION         CLOUDY    32  29  88 S7        30.08S FOG     WCI  25
OMAHA EPPLEY   CLOUDY    32  29  88 SE10      30.17S FOG     WCI  24
OFFUTT AFB     CLOUDY    32  28  86 SE7       30.16S WCI  26
MILLARD        CLOUDY    33  29  85 SE7       30.15S WCI  27
LINCOLN        CLOUDY    34  30  85 S8        30.15R WCI  27
NEBRASKA CITY  CLOUDY    31  31 100 S7        30.16S FOG     WCI  24
BEATRICE       CLOUDY    32  30  93 S6        30.15R WCI  26
FALLS CITY     CLOUDY    30  26  85 S3        30.19S

...NORTHERN KANSAS...

CITY           SKY/WX    TMP DP  RH WIND       PRES   REMARKS
GOODLAND       CLEAR     37  24  59 SW8       30.05S WCI  31
HILL CITY      CLEAR     41  27  57 SW7       30.06F
NORTON         CLEAR     41  28  60 CALM      30.03S
PHILLIPSBURG   CLEAR     43  30  61 E5        30.06S
SMITH CENTER   CLEAR     32  30  93 E9        30.08S FOG     WCI  24
BELOIT         CLOUDY    34  32  93 SE8       30.12S WCI  27
HAYS           CLEAR     39  28  65 S10       30.09S WCI  32
RUSSELL        CLEAR     35  34  96 S10       30.09S WCI  27
CONCORDIA      CLOUDY    32  31  96 S7        30.13S WCI  26
SALINA         CLEAR     34  31  88 SE7       30.16S WCI  28
TOPEKA         CLOUDY    33  27  78 SW6       30.21S WCI  28



USA.gov is the U.S. government's official web portal to all federal, state and local government web resources and services.